Theta_e
323 332 333 330 324 324 325 326 327 327 326 328 332 331 333 334 346 349 352 353 353 352 349 348 348 347 347 346 346 345 345 342 345 348 349 352 352 352 352 351 350 349 348 347
329 333 328 323 322 323 324 326 328 327 325 326 329 338 339 339 341 343 347 349 350 351 350 349 348 348 347 347 347 347 345 348 343 350 349 352 352 352 352 352 349 348 348 347
332 328 321 322 323 324 325 326 327 326 326 324 325 332 343 342 343 343 342 342 342 349 350 350 349 348 348 347 348 348 348 347 348 349 349 352 352 351 351 351 351 349 348 347
325 323 323 324 324 324 329 324 323 325 326 328 324 329 345 346 347 346 344 345 344 338 347 348 349 349 348 347 348 348 349 350 350 348 349 350 351 351 350 351 351 350 348 347
325 323 324 325 326 324 327 322 323 323 325 325 325 337 346 347 349 346 345 346 345 344 344 345 347 348 349 347 347 347 349 350 350 351 349 350 350 350 350 351 351 348 349 347
323 321 323 324 324 323 322 324 324 322 324 330 342 332 348 349 348 345 343 346 346 346 346 345 344 346 349 350 347 347 348 350 351 350 350 351 350 351 350 350 350 350 351 351
325 325 323 323 325 323 325 328 330 328 328 329 329 345 349 345 343 341 342 343 346 348 349 346 346 346 348 349 350 348 347 349 351 351 351 351 351 351 351 349 349 350 350 350
329 333 328 326 327 330 328 329 331 332 330 329 327 348 349 343 340 339 340 341 344 347 349 349 346 347 349 349 350 350 350 350 350 350 350 351 351 351 351 350 350 350 349 349
329 332 329 329 326 326 327 332 324 326 323 329 332 346 342 343 341 339 340 341 342 344 348 348 348 349 349 350 350 350 350 351 351 351 351 352 352 352 351 350 350 350 349 349
327 332 330 331 331 329 328 324 334 333 341 339 341 354 352 347 344 341 341 342 342 341 344 346 346 347 349 349 350 350 350 350 350 351 351 351 352 352 351 351 351 350 349 346
325 329 333 333 333 333 334 336 331 332 335 341 341 348 345 344 342 341 341 341 342 342 341 341 344 345 346 350 350 349 349 350 350 350 350 350 351 351 351 350 350 350 350 348
328 331 336 334 329 330 332 333 333 339 341 335 338 350 340 339 338 337 338 338 341 341 340 339 338 341 344 344 345 345 345 346 348 351 352 351 351 351 350 350 350 351 351 350
330 333 337 335 332 330 335 338 329 331 334 341 338 346 342 337 336 336 337 338 336 338 340 339 339 338 337 339 341 343 342 341 341 348 350 350 348 349 351 353 352 352 352 351
333 330 336 338 335 333 336 340 340 332 335 337 338 350 344 340 337 336 334 336 335 334 335 335 335 335 336 338 338 341 344 341 341 338 337 339 339 338 338 340 345 352 354 354
329 334 333 334 332 337 341 341 341 339 338 339 344 346 341 335 334 332 331 333 332 332 332 333 332 333 332 334 337 339 340 339 340 338 337 337 337 337 337 335 334 334 345 352
324 332 329 334 334 337 339 339 340 341 342 342 341 341 332 330 330 330 330 333 333 331 330 330 330 329 329 330 332 335 337 338 338 339 337 331 330 332 332 336 335 332 331 341
327 328 328 332 331 328 331 334 336 337 338 338 337 336 331 331 331 331 330 331 332 330 329 328 328 327 328 329 330 330 332 336 338 337 337 336 336 335 335 333 335 334 333 334
327 328 327 331 333 333 328 327 332 333 332 333 333 331 331 331 330 328 327 330 331 328 326 326 325 325 326 326 327 329 331 334 337 337 338 338 338 339 338 337 337 339 341 340
322 327 328 330 329 329 328 332 332 331 330 331 331 331 329 328 326 326 324 324 325 325 323 323 323 323 324 324 326 328 329 332 335 336 336 337 339 339 341 342 342 342 343 345
322 325 328 329 328 328 331 328 328 327 332 330 330 329 327 326 326 322 322 323 323 322 321 322 322 322 322 323 325 327 328 330 331 331 331 334 339 340 340 342 343 339 339 345
328 328 328 329 329 328 328 328 326 334 331 329 326 326 325 326 323 323 323 322 321 320 320 320 319 320 321 323 323 324 325 327 328 328 329 331 335 338 338 343 343 341 340 339
329 330 329 329 331 330 328 328 332 330 326 325 325 324 324 322 322 322 322 322 320 319 319 319 318 319 320 321 321 321 321 323 325 325 326 328 332 335 337 341 344 342 341 341
329 327 329 328 328 327 328 327 326 325 326 326 324 321 321 322 323 322 322 321 319 319 318 319 318 318 319 319 319 319 320 321 323 323 325 326 331 335 337 340 343 342 339 341
330 325 331 331 330 328 326 325 325 326 325 323 320 320 321 322 321 320 319 319 318 317 317 317 317 317 318 318 317 317 318 320 321 322 324 326 331 334 336 336 336 335 336 340
329 328 331 329 327 327 326 326 326 325 321 319 319 320 320 319 318 318 316 315 315 315 315 315 316 316 316 315 316 317 318 319 320 322 323 326 331 334 335 334 332 332 332 335
327 331 330 330 330 330 329 325 325 322 320 319 320 318 317 316 316 315 316 315 315 315 315 314 314 313 313 314 315 316 319 320 320 322 324 328 330 331 333 333 334 329 331 333
Wind_Speed
3 4 7 5 4 2 4 6 8 7 4 3 10 14 20 17 7 10 8 7 13 19 16 20 23 24 22 23 24 24 23 28 22 19 19 16 16 15 14 17 17 16 16 15
4 8 6 2 2 4 5 8 6 10 5 3 10 17 17 22 17 12 9 9 14 15 14 17 23 25 28 27 28 26 28 25 30 21 22 15 16 15 15 15 17 16 16 17
9 2 4 3 3 3 6 6 3 4 7 7 5 4 20 20 17 18 17 15 13 17 17 16 22 25 26 29 30 30 31 32 29 29 21 16 12 13 15 13 14 17 18 15
3 1 6 7 7 7 6 5 6 4 2 5 5 2 20 19 17 23 22 20 18 10 16 15 21 24 26 29 27 28 29 29 30 32 25 23 20 19 18 17 15 15 19 18
1 3 5 6 5 6 4 2 2 2 1 3 7 3 11 14 18 24 23 23 21 16 10 15 21 27 25 24 25 26 27 29 27 27 28 24 22 19 15 14 15 17 17 20
7 1 4 4 3 7 2 2 1 2 1 4 10 1 13 13 18 21 21 21 20 19 14 9 18 21 20 21 23 24 26 28 26 28 30 26 24 21 17 16 15 16 15 16
3 4 3 4 4 3 5 4 3 1 2 4 1 8 4 14 15 16 18 20 20 19 18 8 8 14 18 22 24 25 26 27 27 27 26 28 26 25 23 23 19 17 18 18
3 4 2 2 3 3 5 3 1 2 3 3 1 5 6 13 14 16 16 17 18 21 20 18 1 10 15 20 22 24 26 26 26 27 29 30 28 25 25 25 23 21 20 20
3 2 3 9 2 3 5 3 2 5 1 2 1 3 5 14 17 19 21 23 25 23 20 20 17 5 9 14 17 19 17 18 21 24 23 25 26 26 25 28 28 25 24 21
2 2 4 3 2 12 2 7 2 1 2 2 3 1 1 12 16 18 21 21 21 21 20 19 20 20 10 6 10 13 13 14 14 15 16 17 19 22 22 21 24 27 26 30
6 3 2 1 7 3 1 1 5 3 3 1 3 3 2 5 9 13 15 15 17 18 18 16 20 21 18 10 3 8 8 6 8 11 13 14 16 18 19 22 23 26 23 28
3 3 2 4 3 3 3 3 2 3 3 2 3 4 5 4 7 10 13 13 13 13 15 16 21 21 20 17 11 14 14 12 9 7 7 7 9 13 15 19 23 22 24 24
7 1 4 4 4 2 3 4 3 4 1 2 3 3 6 4 4 7 10 12 13 14 14 13 17 18 17 14 11 8 8 9 4 8 13 9 11 4 10 14 18 21 22 23
5 3 2 3 3 3 4 3 2 3 3 1 3 9 7 2 5 7 9 10 11 12 13 13 14 16 16 15 12 14 18 19 14 17 6 5 3 5 9 12 14 18 22 23
1 3 4 6 4 5 5 3 0 2 2 4 5 6 3 4 7 9 9 8 10 12 13 14 15 16 17 16 15 13 10 12 12 14 14 19 21 20 15 19 21 24 22 25
2 4 4 3 5 6 5 4 6 7 7 6 4 4 1 3 6 8 11 10 9 10 12 13 15 21 20 19 20 19 16 14 10 7 9 12 12 12 17 16 17 22 24 27
2 7 4 4 6 2 4 5 3 3 2 2 4 2 1 4 8 9 12 12 9 12 15 14 14 19 21 22 20 21 21 16 13 12 13 13 13 12 11 10 14 25 26 28
5 6 2 4 4 5 4 1 2 1 3 3 2 3 2 5 10 13 13 11 10 15 17 16 18 19 21 23 22 22 20 18 14 15 16 14 13 13 12 12 16 22 25 24
0 4 4 4 5 1 6 5 6 6 3 7 5 4 5 7 12 12 4 9 13 15 20 21 21 22 21 21 20 19 20 19 17 16 16 18 15 15 13 12 15 17 25 25
6 5 1 3 3 3 3 7 3 5 5 8 5 4 7 7 8 9 11 15 18 23 22 22 23 23 20 20 18 17 16 15 16 18 21 20 17 16 17 16 14 13 13 20
4 3 4 4 4 1 7 8 7 4 2 8 2 5 7 8 9 15 16 18 20 19 23 23 20 21 20 18 17 18 18 16 15 18 19 20 18 17 18 17 14 13 15 17
3 5 3 3 3 6 11 6 5 4 4 3 3 4 9 11 14 15 16 15 19 19 23 21 20 21 20 18 18 20 21 19 18 18 19 20 19 16 17 17 14 14 15 14
3 1 1 3 1 3 9 3 6 5 4 3 2 6 9 13 14 14 14 15 19 19 19 21 21 22 21 19 19 21 22 21 20 19 18 19 19 14 14 12 12 15 12 11
2 2 2 4 4 6 6 6 5 4 4 2 3 7 9 11 13 14 14 16 20 20 20 20 22 21 21 21 21 21 23 21 20 21 18 17 15 15 10 8 8 9 10 10
1 7 5 1 3 3 6 7 7 7 4 1 3 5 7 9 11 12 13 17 20 21 21 20 19 20 21 24 23 24 21 19 19 19 18 16 13 13 11 8 8 9 8 9
6 5 5 4 9 3 3 12 9 6 3 2 3 6 7 9 11 15 15 19 20 21 19 18 19 20 22 22 23 24 20 17 16 17 15 13 14 11 10 9 9 8 7 5
Wind_Direction
37 245 265 308 269 297 294 291 293 294 285 277 43 36 15 360 255 286 287 251 230 218 215 210 212 210 207 205 202 205 209 213 209 207 206 213 217 220 223 230 229 233 236 236
196 248 285 209 228 266 276 289 286 284 238 281 89 50 45 40 37 7 316 266 245 249 233 218 211 209 208 206 207 202 207 208 212 211 208 207 214 222 225 225 228 233 234 236
222 169 130 297 292 241 241 241 280 294 323 92 331 79 23 19 34 26 15 5 331 251 234 218 215 213 213 210 207 204 206 208 212 214 209 212 215 222 220 225 227 233 232 236
275 224 247 268 253 214 307 212 273 282 301 344 342 60 26 358 16 18 10 4 355 294 238 221 216 213 214 216 211 210 207 206 211 216 213 212 220 220 222 220 224 228 233 229
181 208 212 244 249 190 283 353 344 11 38 273 29 74 10 10 4 5 2 1 2 360 292 227 215 219 213 212 212 212 207 206 206 210 212 216 223 232 233 231 232 231 228 234
262 277 261 251 219 224 127 220 94 97 173 82 357 266 31 12 352 353 0 5 3 359 352 284 227 222 210 206 205 209 206 206 207 211 215 218 221 226 230 233 230 233 229 232
281 225 230 214 213 160 193 261 302 182 78 61 312 66 51 357 4 4 2 5 8 7 8 344 225 212 213 201 200 201 200 205 207 211 212 217 222 227 233 242 243 235 235 235
313 130 345 168 268 173 176 234 8 10 8 64 13 123 112 23 20 17 18 15 16 19 16 18 281 215 211 207 204 199 197 203 205 209 211 215 221 225 233 239 239 240 241 243
181 92 105 67 75 297 145 164 58 112 95 169 93 118 174 6 14 15 15 17 18 16 18 18 11 274 231 216 210 206 205 210 210 216 218 217 219 221 230 240 244 246 243 248
175 206 15 33 206 57 15 126 163 104 175 153 139 173 46 358 359 11 17 18 16 17 16 17 18 10 347 245 208 204 203 204 217 221 227 233 237 236 235 239 245 250 250 252
175 248 109 297 26 349 98 112 66 99 342 241 212 131 41 360 1 5 15 16 18 21 22 20 22 24 21 38 142 160 155 182 197 209 225 228 237 245 248 247 247 248 253 259
157 110 86 111 108 35 52 77 41 297 143 68 325 122 81 40 31 21 18 22 26 31 33 33 32 29 33 38 71 109 115 121 128 149 200 218 252 258 250 256 259 254 248 248
168 112 132 178 183 147 66 43 69 98 152 186 269 136 143 88 49 20 13 10 15 19 21 20 23 24 21 17 12 53 61 67 115 156 165 168 160 197 258 261 262 261 255 253
89 109 238 265 66 92 132 55 10 283 265 264 268 148 172 31 357 1 1 1 3 6 7 9 11 13 12 3 352 304 300 300 288 289 239 165 236 214 220 254 267 267 262 253
169 109 94 62 86 91 100 72 187 157 125 266 131 152 137 357 339 342 344 349 1 7 6 2 358 1 1 356 347 334 315 333 306 299 279 294 299 292 285 267 265 265 264 256
24 122 132 85 84 115 123 120 104 99 116 105 138 165 117 322 331 350 351 341 342 351 349 344 341 340 344 348 346 338 332 335 336 307 297 309 306 313 299 265 272 266 259 261
80 148 175 147 141 147 204 170 153 123 181 166 214 92 323 318 330 335 327 319 315 331 331 331 329 326 326 330 336 335 329 321 319 307 304 304 311 305 300 302 289 271 262 258
136 126 105 122 170 226 73 183 209 206 185 184 193 189 247 303 305 306 306 296 305 323 322 322 322 320 319 319 323 327 330 323 314 311 310 312 313 305 292 308 285 275 266 259
323 147 117 175 203 56 189 191 180 200 213 201 215 213 267 309 305 294 285 311 309 313 312 312 312 314 311 311 316 320 323 326 327 326 321 312 303 299 299 290 283 302 281 264
93 73 199 158 212 247 84 144 148 159 250 176 207 258 299 321 296 314 332 318 314 314 313 311 312 308 307 308 314 316 313 316 318 323 320 320 311 304 296 285 282 295 298 278
122 70 200 165 221 169 152 143 153 218 73 162 232 279 289 284 291 304 308 309 313 314 317 316 316 311 303 305 310 307 306 303 307 312 315 316 315 310 305 286 270 284 294 281
170 164 162 142 205 242 156 140 215 103 134 166 213 285 294 299 304 311 314 313 317 317 319 312 304 307 308 311 314 306 297 300 304 306 306 308 306 307 305 294 276 279 288 291
202 297 164 227 69 112 163 79 117 138 142 163 273 313 310 309 317 320 322 325 322 325 326 325 317 313 310 312 313 305 300 301 299 297 295 298 300 300 303 314 290 286 302 307
148 161 133 181 159 162 158 133 137 142 143 133 326 319 322 320 322 324 336 332 324 327 324 323 321 316 312 314 306 297 303 301 296 291 287 286 290 291 288 307 302 313 313 301
58 161 151 149 160 164 207 189 166 149 134 85 338 335 330 325 331 335 332 328 325 326 326 327 321 318 319 317 312 307 302 303 297 291 286 285 283 277 277 281 295 302 334 318
191 170 194 234 174 160 151 174 156 146 129 51 353 343 345 341 339 336 331 329 333 329 325 325 322 323 318 318 321 319 309 301 292 291 290 286 285 276 271 283 302 300 291 12